Weather History for Valdosta Regional, GA

Change the Weather History Date:

Saturday, March 16, 2013

  Actual Average Record
Temperature  
Mean Temperature 62 °F 60 °F  
Max Temperature 82 °F 73 °F 89 °F (2012)
Min Temperature 42 °F 47 °F 33 °F (1999)
Degree Days  
Heating Degree Days 3 6  
Month to date heating degree days 177 112  
Since 1 July heating degree days 1046 1492  
Cooling Degree Days 0 1  
Month to date cooling degree days 3 16  
Year to date cooling degree days 80 26  
Growing Degree Days 12 (Base 50)    
Moisture  
Dew Point 46 °F    
Average Humidity 71    
Maximum Humidity 78    
Minimum Humidity 64    
Precipitation  
Precipitation 0.00 in 0.14 in 2.00 in (2005)
Month to date precipitation 0.35 2.61  
Year to date precipitation 6.50 11.34  
Sea Level Pressure  
Sea Level Pressure 30.11 in    
Wind  
Wind Speed 4 mph (SW)    
Max Wind Speed 14 mph    
Max Gust Speed 23 mph    
Visibility 10 miles    
Events      
T = Trace of Precipitation, MM = Missing Value Source: NWS Daily Summary

Daily Weather History Graph

Daily Weather History Graph

Search for Another Location

Airport:

Trip Planner

Search our weather history database for the weather conditions in past years. The results will help you decide how hot, cold, wet, or windy it might be!

Date:

Astronomy

Mar. 16, 2013 Rise Set
Actual Time 7:41 AM EDT 7:42 PM EDT
Civil Twilight 7:17 AM EDT 8:06 PM EDT
Nautical Twilight 6:49 AM EDT 8:34 PM EDT
Astronomical Twilight 6:21 AM EDT 9:02 PM EDT
Moon 10:30 AM EDT (3/16) No Moon Set
Length of Visible Light 12h 48m
Length of Day
12h 00m
Waxing Crescent, 23% of the Moon is Illuminated
Mar 16
Waxing Crescent
Mar 19
First Quarter
Mar 27
Full
Apr 3
Last Quarter
Apr 10
New

Hourly Weather History & Observations

Time (EDT) Temp. Dew Point Humidity Pressure Visibility Wind Dir Wind Speed Gust Speed Precip Events Conditions
12:53 AM 54.0 °F 41.0 °F 62% 30.19 in 10.0 mi Variable 3.5 mph - N/A   Clear
1:53 AM 53.1 °F 42.1 °F 66% 30.17 in 10.0 mi Variable 3.5 mph - N/A   Clear
2:53 AM 52.0 °F 42.1 °F 69% 30.16 in 10.0 mi Variable 3.5 mph - N/A   Clear
3:53 AM 51.1 °F 42.1 °F 71% 30.14 in 10.0 mi Calm Calm - N/A   Clear
4:53 AM 46.9 °F 39.9 °F 77% 30.14 in 10.0 mi Calm Calm - N/A   Clear
5:53 AM 45.0 °F 39.9 °F 82% 30.14 in 10.0 mi Calm Calm - N/A   Clear
6:53 AM 44.1 °F 39.0 °F 82% 30.14 in 8.0 mi Calm Calm - N/A   Clear
7:53 AM 42.1 °F 37.9 °F 85% 30.16 in 9.0 mi Calm Calm - N/A   Clear
8:53 AM 54.0 °F 46.0 °F 75% 30.17 in 10.0 mi Variable 3.5 mph - N/A   Clear
9:53 AM 63.0 °F 50.0 °F 63% 30.17 in 10.0 mi Variable 3.5 mph - N/A   Clear
12:53 PM 77.0 °F 46.0 °F 33% 30.14 in 10.0 mi Variable 6.9 mph - N/A   Clear
1:53 PM 78.1 °F 46.9 °F 33% 30.12 in 10.0 mi Variable 5.8 mph - N/A   Clear
2:53 PM 82.0 °F 46.0 °F 28% 30.08 in 10.0 mi Variable 4.6 mph - N/A   Clear
3:53 PM 82.0 °F 45.0 °F 27% 30.05 in 10.0 mi Variable 4.6 mph - N/A   Clear
4:53 PM 82.0 °F 46.0 °F 28% 30.03 in 10.0 mi SW 9.2 mph 16.1 mph N/A   Partly Cloudy
5:53 PM 78.1 °F 53.1 °F 42% 30.02 in 10.0 mi SW 8.1 mph - N/A   Clear
6:53 PM 73.9 °F 54.0 °F 50% 30.04 in 10.0 mi SSW 10.4 mph 18.4 mph N/A   Clear
7:53 PM 70.0 °F 54.0 °F 57% 30.05 in 10.0 mi Variable 4.6 mph - N/A   Clear
8:53 PM 66.9 °F 54.0 °F 63% 30.07 in 10.0 mi SSW 9.2 mph - N/A   Clear
9:53 PM 64.0 °F 52.0 °F 65% 30.09 in 10.0 mi Variable 5.8 mph - N/A   Clear
10:53 PM 62.1 °F 52.0 °F 70% 30.11 in 10.0 mi SSW 4.6 mph - N/A   Clear
11:53 PM 60.1 °F 54.0 °F 80% 30.12 in 10.0 mi SW 3.5 mph - N/A   Clear